WA2GUG Weather Reports


Display with metric or nautical units.
time (UTC)temp
F
wind
direction
speed
MPH
gust
MPH
rain 1hr
in
rain 24hr
in
rain mn
in
humidity
%
barometer
mb
20260904022203 0 147 0.0 0.0 0.00 0.00 0.00 99 1009.0
20260904021704 0 292 0.0 0.0 0.00 0.00 0.00 99 1009.0
20260904021203 0 292 0.0 0.0 0.00 0.00 0.00 99 1009.0
20260904020703 0 292 0.0 0.0 0.00 0.00 0.00 99 1009.0
20260904020203 0 292 0.0 0.0 0.00 0.00 0.00 99 1009.0
20260904015703 0 292 0.0 0.0 0.00 0.00 0.00 99 1009.0
20260904015203 0 304 0.0 0.0 0.00 0.00 0.00 99 1009.0
20260904014703 0 349 0.0 0.0 0.00 0.00 0.00 99 1009.0
20260904014203 0 111 0.0 0.0 0.00 0.00 0.00 99 1009.0
20260904013703 0 135 0.0 0.0 0.00 0.00 0.00 99 1009.0
20260904013203 0 135 0.0 0.0 0.00 0.00 0.00 99 1009.0
20260904012703 0 135 0.0 0.0 0.00 0.00 0.00 99 1009.0
20260904012203 69 118 0.0 0.0 0.00 0.00 0.00 99 1009.0
20260904011703 70 57 0.0 0.0 0.00 0.00 0.00 99 1009.0
20260904011203 70 45 0.0 0.0 0.00 0.00 0.00 99 1009.0
20260904010703 70 33 0.0 0.0 0.00 0.00 0.00 99 1009.0
20260904010203 70 135 0.0 0.0 0.00 0.00 0.00 99 1009.0
20260904005703 70 134 0.0 0.0 0.00 0.00 0.00 99 1009.0
20260904005203 70 135 0.0 0.0 0.00 0.00 0.00 99 1009.0
20260904004703 70 135 0.0 0.0 0.00 0.00 0.00 99 1009.0
20260904004203 71 69 0.0 0.0 0.00 0.00 0.00 99 1009.0
20260904003703 71 132 0.0 0.0 0.00 0.00 0.00 99 1009.0
20260904003203 71 130 0.0 0.0 0.00 0.00 0.00 99 1009.0
20260904002703 71 90 0.0 0.0 0.00 0.00 0.00 99 1009.0
20260904002203 71 142 0.0 0.0 0.00 0.00 0.00 99 1009.0
20260904001703 72 122 0.0 0.0 0.00 0.00 0.00 99 1009.0
20260904001203 72 135 0.0 0.0 0.00 0.00 0.00 99 1008.2
20260904000703 72 153 0.0 0.0 0.00 0.00 0.00 99 1009.0
20260904000204 73 157 0.0 0.0 0.00 0.00 0.00 99 1009.0
20260903235703 73 144 0.0 0.0 0.00 0.00 0.00 99 1008.2
20260903235203 73 177 0.0 0.0 0.00 0.00 0.00 99 1008.2
20260903234703 74 151 0.0 0.0 0.00 0.00 0.00 99 1009.0
20260903234203 74 160 0.0 0.0 0.00 0.00 0.00 99 1008.2
20260903233703 74 135 0.0 0.0 0.00 0.00 0.00 99 1009.0
20260903233203 74 135 0.0 0.0 0.00 0.00 0.00 99 1009.0
20260903232703 74 169 0.0 0.0 0.00 0.00 0.00 99 1008.1
20260903232203 74 191 0.0 0.0 0.00 0.00 0.00 99 1008.1
20260903231703 75 180 0.0 0.0 0.00 0.00 0.00 99 1008.1
20260903231203 75 221 0.0 0.0 0.00 0.00 0.00 99 1008.0
20260903230703 76 213 0.0 0.0 0.00 0.00 0.00 99 1008.0
20260903230203 77 169 0.0 0.0 0.00 0.00 0.00 99 1008.1
20260903225703 78 177 0.0 0.0 0.00 0.00 0.00 99 1008.2
20260903225203 78 177 0.0 0.0 0.00 0.00 0.00 99 1008.2
20260903224703 79 181 0.0 0.0 0.00 0.00 0.00 99 1008.1
20260903224203 81 202 0.0 0.0 0.00 0.00 0.00 99 1008.0
20260903223703 82 203 0.0 0.0 0.00 0.00 0.00 99 1008.0
20260903223203 83 225 0.0 0.0 0.00 0.00 0.00 99 1008.0
20260903222703 84 225 0.0 0.0 0.00 0.00 0.00 99 1008.1
20260903222203 86 225 0.0 0.0 0.00 0.00 0.00 99 1008.0
20260903221703 88 225 0.0 0.0 0.00 0.00 0.00 99 1008.0
20260903221203 90 225 0.0 0.0 0.00 0.00 0.00 99 1008.0
20260903220703 90 225 0.0 0.0 0.00 0.00 0.00 99 1008.0
20260903220203 89 218 0.0 0.0 0.00 0.00 0.00 99 1008.0
20260903215703 89 181 0.0 0.0 0.00 0.00 0.00 99 1008.0
20260903215203 89 172 0.0 0.0 0.00 0.00 0.00 99 1008.0
20260903214703 88 177 0.0 0.0 0.00 0.00 0.00 99 1008.0
20260903214203 88 78 0.0 0.0 0.00 0.00 0.00 99 1008.0
20260903213703 90 150 0.0 0.0 0.00 0.00 0.00 99 1008.0
20260903213203 92 349 0.0 0.0 0.00 0.00 0.00 99 1008.0
20260903212703 94 45 0.0 0.0 0.00 0.00 0.00 99 1008.0
20260903212203 94 330 0.0 0.0 0.00 0.00 0.00 99 1008.0
20260903211703 96 9 0.0 0.0 0.00 0.00 0.00 99 1008.0
20260903211203 98 43 0.0 0.0 0.00 0.00 0.00 99 1008.0
20260903210703 99 12 0.0 0.0 0.00 0.00 0.00 99 1008.0
20260903210203 101 249 0.0 0.0 0.00 0.00 0.00 99 1008.0
20260903205703 102 349 0.0 0.0 0.00 0.00 0.00 99 1008.0
20260903205203 101 8 0.0 0.0 0.00 0.00 0.00 99 1008.0
20260903204703 101 41 0.0 0.0 0.00 0.00 0.00 99 1008.0
20260903204203 99 186 0.0 0.0 0.00 0.00 0.00 99 1008.0
20260903203703 98 352 0.0 0.0 0.00 0.00 0.00 99 1008.0
20260903203203 99 22 0.0 0.0 0.00 0.00 0.00 99 1008.0
20260903202703 100 84 0.0 0.0 0.00 0.00 0.00 99 1008.0
20260903202203 100 305 0.0 0.0 0.00 0.00 0.00 99 1008.0
20260903201703 98 173 0.0 0.0 0.00 0.00 0.00 99 1008.0
20260903201203 98 313 0.0 0.0 0.00 0.00 0.00 99 1008.0
20260903200703 98 69 0.0 0.0 0.00 0.00 0.00 99 1008.0
20260903200203 97 4 0.0 0.0 0.00 0.00 0.00 99 1008.0
20260903195703 96 39 0.0 1.0 0.00 0.00 0.00 99 1008.0
20260903195203 97 358 0.0 1.0 0.00 0.00 0.00 99 1008.0
20260903194703 96 89 0.0 1.0 0.00 0.00 0.00 99 1008.0
20260903194203 95 44 0.0 1.0 0.00 0.00 0.00 99 1008.0
20260903193703 96 41 0.0 0.0 0.00 0.00 0.00 99 1008.0
20260903193203 97 34 0.0 0.0 0.00 0.00 0.00 99 1008.0
20260903192703 0 354 0.0 0.0 0.00 0.00 0.00 99 1008.0
20260903192203 0 272 0.0 0.0 0.00 0.00 0.00 99 1008.0
20260903191703 86 243 0.0 0.0 0.00 0.00 0.00 99 1008.0
20260903191203 85 145 0.0 0.0 0.00 0.00 0.00 99 1008.2
20260903190703 85 223 0.0 0.0 0.00 0.00 0.00 99 1008.2
20260903190203 84 239 0.0 0.0 0.00 0.00 0.00 99 1008.2
20260903185703 84 229 0.0 0.0 0.00 0.00 0.00 99 1008.2
20260903185203 84 152 0.0 0.0 0.00 0.00 0.00 99 1009.0
20260903184703 84 216 0.0 0.0 0.00 0.00 0.00 99 1009.0
20260903184203 85 168 0.0 0.0 0.00 0.00 0.00 99 1009.0
20260903183703 87 220 0.0 0.0 0.00 0.00 0.00 99 1009.0
20260903183203 90 267 0.0 0.0 0.00 0.00 0.00 99 1009.0
20260903182703 93 264 0.0 0.0 0.00 0.00 0.00 99 1009.0
20260903182203 96 266 0.0 0.0 0.00 0.00 0.00 99 1009.0
20260903181703 0 221 0.0 0.0 0.00 0.00 0.00 99 1009.0
20260903181203 92 309 0.0 0.0 0.00 0.00 0.00 99 1009.0
20260903180703 92 293 0.0 0.0 0.00 0.00 0.00 99 1009.0
20260903180203 0 240 0.0 0.0 0.00 0.00 0.00 99 1009.0
20260903175703 0 243 0.0 0.0 0.00 0.00 0.00 99 1009.0
20260903175203 0 228 0.0 0.0 0.00 0.00 0.00 99 1009.0
20260903174703 85 179 0.0 0.0 0.00 0.00 0.00 99 1009.0
20260903174203 85 249 0.0 0.0 0.00 0.00 0.00 99 1009.0
20260903173703 85 278 0.0 0.0 0.00 0.00 0.00 99 1009.0
20260903173203 0 198 0.0 0.0 0.00 0.00 0.00 99 1009.0
20260903172703 0 264 0.0 0.0 0.00 0.00 0.00 99 1009.0
20260903172203 0 233 0.0 0.0 0.00 0.00 0.00 99 1009.0
20260903171703 0 163 0.0 0.0 0.00 0.00 0.00 99 1009.0
20260903171203 0 252 0.0 0.0 0.00 0.00 0.00 99 1009.0
20260903170703 0 294 0.0 0.0 0.00 0.00 0.00 99 1009.0
20260903170203 0 276 0.0 0.0 0.00 0.00 0.00 99 1009.0
20260903165703 0 171 0.0 0.0 0.00 0.00 0.00 99 1009.0
20260903165203 0 166 0.0 0.0 0.00 0.00 0.00 99 1009.0
20260903164703 0 54 0.0 0.0 0.00 0.00 0.00 99 1009.0
20260903164203 0 261 0.0 0.0 0.00 0.00 0.00 99 1009.0
20260903163703 0 260 0.0 0.0 0.00 0.00 0.00 99 1009.0
20260903163203 0 13 0.0 0.0 0.00 0.00 0.00 99 1009.0
20260903162703 0 312 0.0 0.0 0.00 0.00 0.00 99 1009.0
20260903162203 0 327 0.0 0.0 0.00 0.00 0.00 99 1009.0
20260903161703 0 285 0.0 0.0 0.00 0.00 0.00 99 1009.0
20260903161203 0 271 0.0 0.0 0.00 0.00 0.00 99 1009.0
20260903160703 0 278 0.0 0.0 0.00 0.00 0.00 99 1009.0
20260903160203 0 317 0.0 0.0 0.00 0.00 0.00 99 1009.0
20260903155703 0 243 0.0 0.0 0.00 0.00 0.00 99 1009.0
20260903155203 0 253 0.0 0.0 0.00 0.00 0.00 99 1009.0
20260903154703 0 218 0.0 0.0 0.00 0.00 0.00 99 1009.2
20260903154203 0 119 0.0 0.0 0.00 0.00 0.00 99 1010.0
20260903153703 0 168 0.0 0.0 0.00 0.00 0.00 99 1009.2
20260903153203 0 217 0.0 0.0 0.00 0.00 0.00 99 1010.0
20260903152703 0 310 0.0 0.0 0.00 0.00 0.00 99 1009.1
20260903152203 0 135 0.0 0.0 0.00 0.00 0.00 99 1009.0
20260903151703 0 282 0.0 0.0 0.00 0.00 0.00 99 1009.1
20260903151203 0 135 0.0 0.0 0.00 0.00 0.00 99 1009.0
20260903150702 0 233 0.0 0.0 0.00 0.00 0.00 99 1009.0
20260903150203 0 267 0.0 0.0 0.00 0.00 0.00 99 1009.0
20260903145703 0 231 0.0 0.0 0.00 0.00 0.00 99 1009.0
20260903145203 0 270 0.0 0.0 0.00 0.00 0.00 99 1009.0
20260903144703 0 212 0.0 0.0 0.00 0.00 0.00 99 1009.1
20260903144203 0 165 0.0 0.0 0.00 0.00 0.00 99 1009.2
20260903143702 0 290 0.0 0.0 0.00 0.00 0.00 99 1009.2
20260903143202 0 7 0.0 0.0 0.00 0.00 0.00 99 1010.0
20260903142703 0 60 0.0 0.0 0.00 0.00 0.00 99 1009.2
20260903142203 0 313 0.0 0.0 0.00 0.00 0.00 99 1009.2
20260903141703 0 160 0.0 0.0 0.00 0.00 0.00 99 1009.2
20260903141202 0 290 0.0 0.0 0.00 0.00 0.00 99 1009.2
20260903140702 0 261 0.0 0.0 0.00 0.00 0.00 99 1009.2
20260903140202 0 278 0.0 0.0 0.00 0.00 0.00 99 1009.2
20260903135702 0 299 0.0 0.0 0.00 0.00 0.00 99 1010.0
20260903135202 0 140 0.0 0.0 0.00 0.00 0.00 99 1009.2
20260903134702 0 212 0.0 0.0 0.00 0.00 0.00 99 1009.2
20260903134202 0 153 0.0 0.0 0.00 0.00 0.00 99 1009.1
20260903133702 0 246 0.0 0.0 0.00 0.00 0.00 99 1009.0
20260903133202 0 178 0.0 0.0 0.00 0.00 0.00 99 1009.2
20260903132702 0 138 0.0 0.0 0.00 0.00 0.00 99 1009.2
20260903132202 0 40 0.0 0.0 0.00 0.00 0.00 99 1010.0
20260903131703 0 175 0.0 0.0 0.00 0.00 0.00 99 1009.2
20260903131202 0 86 0.0 0.0 0.00 0.00 0.00 99 1009.2
20260903130702 0 287 0.0 0.0 0.00 0.00 0.00 99 1009.2
20260903130202 0 178 0.0 0.0 0.00 0.00 0.00 99 1009.1
20260903125703 0 207 0.0 0.0 0.00 0.00 0.00 99 1009.2
20260903125203 0 160 0.0 0.0 0.00 0.00 0.00 99 1009.2
20260903124702 0 152 0.0 0.0 0.00 0.00 0.00 99 1010.0
20260903124202 0 171 0.0 0.0 0.00 0.00 0.00 99 1010.0
20260903123702 0 135 0.0 0.0 0.00 0.00 0.00 99 1010.0
20260903123207 0 143 0.0 0.0 0.00 0.00 0.00 99 1010.0
20260903114702 0 43 0.0 0.0 0.00 0.00 0.00 99 1010.0
20260903114202 0 57 0.0 0.0 0.00 0.00 0.00 99 1009.2
20260903113702 0 101 0.0 0.0 0.00 0.00 0.00 99 1010.0
20260903113202 0 76 0.0 0.0 0.00 0.00 0.00 99 1010.0
20260903112702 0 1 0.0 0.0 0.00 0.00 0.00 99 1010.0
20260903112202 0 250 0.0 0.0 0.00 0.00 0.00 99 1010.0
20260903111702 0 91 0.0 0.0 0.00 0.00 0.00 99 1010.0
20260903111202 0 155 0.0 0.0 0.00 0.00 0.00 99 1010.0
20260903110702 0 157 0.0 0.0 0.00 0.00 0.00 99 1010.0
20260903110202 0 267 0.0 0.0 0.00 0.00 0.00 99 1010.0
20260903105702 0 291 0.0 0.0 0.00 0.00 0.00 99 1010.0
20260903105202 0 281 0.0 0.0 0.00 0.00 0.00 99 1010.0
20260903104702 0 323 0.0 0.0 0.00 0.00 0.00 99 1010.0
20260903104202 0 264 0.0 0.0 0.00 0.00 0.00 99 1010.0
20260903103702 0 135 0.0 0.0 0.00 0.00 0.00 99 1010.0
20260903103202 0 196 0.0 0.0 0.00 0.00 0.00 99 1010.0
20260903102702 0 165 0.0 0.0 0.00 0.00 0.00 99 1010.0
20260903102202 0 138 0.0 0.0 0.00 0.00 0.00 99 1010.0
20260903101702 0 76 0.0 0.0 0.00 0.00 0.00 99 1010.0
20260903101202 0 211 0.0 0.0 0.00 0.00 0.00 99 1009.2
20260903100702 0 150 0.0 0.0 0.00 0.00 0.00 99 1010.0
20260903100202 0 135 0.0 0.0 0.00 0.00 0.00 99 1010.0
20260903095702 0 79 0.0 0.0 0.00 0.00 0.00 99 1010.0
20260903095202 0 96 0.0 0.0 0.00 0.00 0.00 99 1010.0
20260903094702 0 274 0.0 0.0 0.00 0.00 0.00 99 1010.0
20260903094202 0 267 0.0 0.0 0.00 0.00 0.00 99 1009.2
20260903093702 0 136 0.0 0.0 0.00 0.00 0.00 99 1010.0
20260903093202 0 135 0.0 0.0 0.00 0.00 0.00 99 1009.2
20260903092702 0 270 0.0 0.0 0.00 0.00 0.00 99 1010.0
20260903092202 0 266 0.0 0.0 0.00 0.00 0.00 99 1009.2
20260903091702 0 264 0.0 0.0 0.00 0.00 0.00 99 1010.0
20260903091202 0 237 0.0 0.0 0.00 0.00 0.00 99 1009.2
20260903090702 0 169 0.0 0.0 0.00 0.00 0.00 99 1010.0
20260903090202 0 286 0.0 0.0 0.00 0.00 0.00 99 1009.2
20260903085702 0 331 0.0 0.0 0.00 0.00 0.00 99 1010.0
20260903085202 0 4 0.0 0.0 0.00 0.00 0.00 99 1010.0
20260903084702 0 162 0.0 0.0 0.00 0.00 0.00 99 1010.0
20260903084202 0 174 0.0 0.0 0.00 0.00 0.00 99 1009.2
20260903083702 0 251 0.0 0.0 0.00 0.00 0.00 99 1010.0
20260903083202 0 180 0.0 0.0 0.00 0.00 0.00 99 1009.2
20260903082702 0 276 0.0 0.0 0.00 0.00 0.00 99 1010.0
20260903082202 0 150 0.0 0.0 0.00 0.00 0.00 99 1010.0
20260903081702 0 124 0.0 0.0 0.00 0.00 0.00 99 1010.0
20260903081202 0 33 0.0 0.0 0.00 0.00 0.00 99 1010.0
20260903080702 0 247 0.0 0.0 0.00 0.00 0.00 99 1010.0
20260903080202 0 270 0.0 0.0 0.00 0.00 0.00 99 1009.2
20260903075702 0 280 0.0 0.0 0.00 0.00 0.00 99 1009.2
20260903075202 0 293 0.0 0.0 0.00 0.00 0.00 99 1009.2
20260903074702 0 198 0.0 0.0 0.00 0.00 0.00 99 1009.2
20260903074202 0 136 0.0 0.0 0.00 0.00 0.00 99 1009.2
20260903073702 0 256 0.0 0.0 0.00 0.00 0.00 99 1010.0
20260903073202 0 182 0.0 0.0 0.00 0.00 0.00 99 1009.2
20260903072702 0 139 0.0 0.0 0.00 0.00 0.00 99 1009.1
20260903072202 0 193 0.0 0.0 0.00 0.00 0.00 99 1009.0
20260903071702 0 288 0.0 0.0 0.00 0.00 0.00 99 1009.0
20260903071202 0 257 0.0 0.0 0.00 0.00 0.00 99 1009.0
20260903070702 0 185 0.0 0.0 0.00 0.00 0.00 99 1009.1
20260903070202 0 216 0.0 0.0 0.00 0.00 0.00 99 1009.1
20260903065702 0 139 0.0 0.0 0.00 0.00 0.00 99 1009.2
20260903065202 0 277 0.0 0.0 0.00 0.00 0.00 99 1009.2
20260903064702 0 184 0.0 0.0 0.00 0.00 0.00 99 1009.0
20260903064202 0 265 0.0 0.0 0.00 0.00 0.00 99 1009.0
20260903063702 0 187 0.0 0.0 0.00 0.00 0.00 99 1009.0
20260903063202 0 184 0.0 0.0 0.00 0.00 0.00 99 1009.0
20260903062702 0 185 0.0 0.0 0.00 0.00 0.00 99 1009.0
20260903062202 0 251 0.0 0.0 0.00 0.00 0.00 99 1009.0
20260903061702 0 95 0.0 0.0 0.00 0.00 0.00 99 1009.0
20260903061202 0 135 0.0 0.0 0.00 0.00 0.00 99 1009.0
20260903060702 0 101 0.0 0.0 0.00 0.00 0.00 99 1009.0
20260903060202 0 282 0.0 0.0 0.00 0.00 0.00 99 1009.0
20260903055702 0 131 0.0 0.0 0.00 0.00 0.00 99 1009.2
20260903055202 0 277 0.0 0.0 0.00 0.00 0.00 99 1009.2
20260903054702 0 274 0.0 0.0 0.00 0.00 0.00 99 1010.0
20260903054202 0 180 0.0 0.0 0.00 0.00 0.00 99 1010.0
20260903053702 0 222 0.0 0.0 0.00 0.00 0.00 99 1010.0
20260903053202 0 286 0.0 0.0 0.00 0.00 0.00 99 1010.0
20260903052702 0 214 0.0 0.0 0.00 0.00 0.00 99 1010.0
20260903052202 0 284 0.0 0.0 0.00 0.00 0.00 99 1010.0
20260903051702 0 89 0.0 0.0 0.00 0.00 0.00 99 1010.0
20260903051202 0 194 0.0 0.0 0.00 0.00 0.00 99 1010.0
20260903050702 0 231 0.0 0.0 0.00 0.00 0.00 99 1010.0
20260903050202 0 225 0.0 0.0 0.00 0.00 0.00 99 1010.0
20260903045702 0 217 0.0 0.0 0.00 0.00 0.00 99 1010.0
20260903045202 0 214 0.0 0.0 0.00 0.00 0.00 99 1010.1
20260903044702 0 219 0.0 0.0 0.00 0.00 0.00 99 1011.0
20260903044202 0 225 0.0 0.0 0.00 0.00 0.00 99 1010.1
20260903043702 0 227 0.0 0.0 0.00 0.00 0.00 99 1010.0
20260903043202 0 232 0.0 0.0 0.00 0.00 0.00 99 1009.2
20260903042702 0 234 0.0 0.0 0.00 0.00 0.00 99 1010.0
20260903042202 0 274 0.0 0.0 0.00 0.00 0.00 99 1010.0
20260903041702 0 227 0.0 0.0 0.00 0.00 0.00 99 1010.2
20260903041202 0 303 0.0 0.0 0.00 0.00 0.00 99 1011.0
20260903040702 0 229 0.0 0.0 0.00 0.00 0.00 99 1011.0
20260903040202 0 208 0.0 0.0 0.00 0.00 0.00 99 1011.0
20260903035702 0 233 0.0 0.0 0.00 0.00 0.00 99 1011.0
20260903035202 0 161 0.0 0.0 0.00 0.00 0.00 99 1011.0
20260903034702 0 277 0.0 0.0 0.00 0.00 0.00 99 1011.0
20260903034202 0 118 0.0 0.0 0.00 0.00 0.00 99 1011.2
20260903033702 0 269 0.0 0.0 0.00 0.00 0.00 99 1012.0
20260903033202 0 260 0.0 0.0 0.00 0.00 0.00 99 1011.2
20260903032702 0 273 0.0 0.0 0.00 0.00 0.00 99 1011.0
20260903032202 0 271 0.0 0.0 0.00 0.00 0.00 99 1011.0
20260903031702 0 102 0.0 2.0 0.00 0.00 0.00 99 1011.0
20260903031202 0 352 0.0 2.0 0.00 0.00 0.00 99 1010.2
20260903030702 0 86 0.0 3.0 0.00 0.00 0.00 99 1011.0
20260903030202 0 262 0.0 4.0 0.00 0.00 0.00 99 1011.0
20260903025702 0 299 0.0 4.0 0.00 0.00 0.00 99 1011.0
20260903025202 0 275 0.0 1.0 0.00 0.00 0.00 99 1011.0
20260903024702 0 247 0.0 2.0 0.00 0.00 0.00 99 1011.0
20260903024202 0 274 0.0 2.0 0.00 0.00 0.00 99 1011.0
20260903023702 0 271 0.0 0.0 0.00 0.00 0.00 99 1011.0
20260903023202 0 233 0.0 0.0 0.00 0.00 0.00 99 1011.0
20260903022702 0 140 0.0 0.0 0.00 0.00 0.00 99 1011.0